Location: Newark
(49.3808°N, 3.1844°E)
Time: 09:10:27
(UTC+00:00)

Vanguard 1 Rocket - Visible Passes

Search period start: 13 November 2019 00:00
Search period end: 23 November 2019 00:00
Orbit: 651 x 4225 km, 34.3° (Epoch: 12 November)

Date Brightness Start Highest point End Pass type
(mag) Time Alt. Az. Time Alt. Az. Time Alt. Az.
14 Nov 9.3 05:20:21 10° SSW 05:23:53 18° SSE 05:28:32 10° ESE visible
15 Nov 9.3 04:11:42 10° S 04:13:28 12° SSE 04:15:24 10° SE visible
16 Nov 9.2 05:23:07 10° SSW 05:26:33 18° SSE 05:31:00 10° SE visible
17 Nov 9.2 04:14:52 12° S 04:16:04 13° SSE 04:18:32 10° SE visible
18 Nov 9.1 05:26:02 10° SW 05:29:16 17° S 05:33:20 10° SE visible
19 Nov 9.0 04:18:00 13° S 04:18:44 14° SSE 04:21:22 10° SE visible
20 Nov 9.1 05:29:06 10° SW 05:32:01 16° S 05:35:30 10° SE visible
21 Nov 9.0 04:21:06 14° S 04:21:27 14° S 04:24:00 10° SE visible
22 Nov 9.1 05:32:29 10° SW 05:34:45 13° S 05:37:23 10° SSE visible
